| time (UTC) | temp F | wind direction | speed knots | gust knots | rain 1hr in | rain 24hr in | rain mn in | humidity % | barometer mb |
| 20260505215103 | 51 | 348 | 4.3 | 7.8 | 0.00 | 0.00 | 0.00 | 78 | 1014.1 |
| 20260505213603 | 51 | 339 | 2.6 | 4.3 | 0.00 | 0.00 | 0.00 | 78 | 1014.2 |
| 20260505211603 | 51 | 358 | 1.7 | 4.3 | 0.00 | 0.00 | 0.00 | 78 | 1014.2 |
| 20260505210104 | 51 | 358 | 2.6 | 5.2 | 0.00 | 0.00 | 0.00 | 77 | 1014.1 |
| 20260505203603 | 52 | 354 | 0.9 | 4.3 | 0.00 | 0.00 | 0.00 | 75 | 1014.1 |
| 20260505202603 | 52 | 334 | 2.6 | 6.1 | 0.00 | 0.00 | 0.00 | 75 | 1014.0 |
| 20260505202105 | 52 | 350 | 5.2 | 7.8 | 0.00 | 0.00 | 0.00 | 74 | 1014.0 |
| 20260505200603 | 52 | 347 | 4.3 | 6.1 | 0.00 | 0.00 | 0.00 | 74 | 1013.9 |
| 20260505195103 | 53 | 340 | 4.3 | 7.0 | 0.00 | 0.00 | 0.00 | 73 | 1013.7 |
| 20260505194603 | 53 | 0 | 2.6 | 5.2 | 0.00 | 0.00 | 0.00 | 73 | 1013.6 |
| 20260505192603 | 54 | 345 | 2.6 | 7.0 | 0.00 | 0.00 | 0.00 | 71 | 1013.5 |
| 20260505192103 | 54 | 355 | 4.3 | 7.0 | 0.00 | 0.00 | 0.00 | 71 | 1013.6 |
| 20260505191603 | 55 | 348 | 4.3 | 7.0 | 0.00 | 0.00 | 0.00 | 70 | 1013.5 |
| 20260505191103 | 55 | 1 | 7.0 | 10.4 | 0.00 | 0.00 | 0.00 | 69 | 1013.5 |
| 20260505185103 | 56 | 352 | 6.1 | 7.8 | 0.00 | 0.00 | 0.00 | 69 | 1013.3 |
| 20260505183603 | 56 | 342 | 6.1 | 11.3 | 0.00 | 0.00 | 0.00 | 68 | 1013.3 |
| 20260505183103 | 56 | 353 | 4.3 | 10.4 | 0.00 | 0.00 | 0.00 | 69 | 1013.2 |
| 20260505182603 | 57 | 341 | 5.2 | 10.4 | 0.00 | 0.00 | 0.00 | 68 | 1013.2 |
| 20260505180603 | 57 | 343 | 5.2 | 10.4 | 0.00 | 0.00 | 0.00 | 66 | 1013.2 |
| 20260505175603 | 58 | 342 | 5.2 | 11.3 | 0.00 | 0.00 | 0.00 | 65 | 1013.2 |
| 20260505174603 | 58 | 332 | 4.3 | 10.4 | 0.00 | 0.00 | 0.00 | 64 | 1013.1 |
| 20260505173104 | 58 | 1 | 7.0 | 11.3 | 0.00 | 0.00 | 0.00 | 62 | 1013.2 |
| 20260505172604 | 58 | 338 | 5.2 | 14.8 | 0.00 | 0.00 | 0.00 | 62 | 1013.1 |
| 20260505172103 | 58 | 2 | 4.3 | 8.7 | 0.00 | 0.00 | 0.00 | 62 | 1013.2 |
| 20260505170604 | 58 | 3 | 4.3 | 10.4 | 0.00 | 0.00 | 0.00 | 62 | 1013.2 |
| 20260505165103 | 59 | 356 | 4.3 | 10.4 | 0.00 | 0.00 | 0.00 | 62 | 1013.2 |
| 20260505164104 | 59 | 344 | 3.5 | 7.0 | 0.00 | 0.00 | 0.00 | 61 | 1013.3 |
| 20260505162603 | 59 | 354 | 6.1 | 14.8 | 0.00 | 0.00 | 0.00 | 60 | 1013.2 |
| 20260505161104 | 59 | 355 | 5.2 | 8.7 | 0.00 | 0.00 | 0.00 | 60 | 1013.1 |
| 20260505153104 | 59 | 350 | 4.3 | 10.4 | 0.00 | 0.00 | 0.00 | 58 | 1013.2 |
| 20260505152604 | 59 | 338 | 5.2 | 8.7 | 0.00 | 0.00 | 0.00 | 58 | 1013.2 |
| 20260505152103 | 59 | 351 | 7.8 | 11.3 | 0.00 | 0.00 | 0.00 | 57 | 1013.2 |
| 20260505151603 | 60 | 342 | 3.5 | 10.4 | 0.00 | 0.00 | 0.00 | 58 | 1013.2 |
| 20260505124103 | 58 | 349 | 5.2 | 10.4 | 0.00 | 0.00 | 0.00 | 65 | 1013.9 |
| 20260505123603 | 59 | 349 | 9.6 | 14.8 | 0.00 | 0.00 | 0.00 | 63 | 1013.8 |
| 20260505122603 | 58 | 5 | 5.2 | 10.4 | 0.00 | 0.00 | 0.00 | 65 | 1013.9 |
| 20260505121604 | 58 | 345 | 5.2 | 14.8 | 0.00 | 0.00 | 0.00 | 65 | 1013.9 |
| 20260505121103 | 58 | 355 | 7.8 | 10.4 | 0.00 | 0.00 | 0.00 | 64 | 1014.0 |
| 20260505120103 | 59 | 21 | 5.2 | 10.4 | 0.00 | 0.00 | 0.00 | 65 | 1013.9 |
| 20260505114604 | 59 | 353 | 7.0 | 13.9 | 0.00 | 0.00 | 0.00 | 64 | 1014.0 |
| 20260505113603 | 59 | 345 | 5.2 | 11.3 | 0.00 | 0.00 | 0.00 | 64 | 1014.0 |
| 20260505113104 | 59 | 350 | 6.1 | 12.2 | 0.00 | 0.00 | 0.00 | 62 | 1014.0 |
| 20260505111103 | 58 | 4 | 5.2 | 12.2 | 0.00 | 0.00 | 0.00 | 64 | 1014.2 |
| 20260505110604 | 58 | 6 | 4.3 | 10.4 | 0.00 | 0.00 | 0.00 | 64 | 1014.2 |
| 20260505102103 | 56 | 353 | 7.0 | 13.0 | 0.00 | 0.00 | 0.00 | 70 | 1014.4 |
| 20260505101603 | 56 | 344 | 6.1 | 11.3 | 0.00 | 0.00 | 0.00 | 69 | 1014.5 |
| 20260505095602 | 55 | 354 | 2.6 | 7.0 | 0.00 | 0.00 | 0.00 | 74 | 1014.7 |
| 20260505094103 | 54 | 2 | 5.2 | 12.2 | 0.00 | 0.00 | 0.00 | 74 | 1014.8 |
| 20260505092603 | 54 | 355 | 7.0 | 12.2 | 0.00 | 0.00 | 0.00 | 73 | 1014.8 |
| 20260505091103 | 53 | 355 | 4.3 | 8.7 | 0.00 | 0.00 | 0.00 | 75 | 1014.8 |
| 20260505085603 | 54 | 352 | 5.2 | 10.4 | 0.00 | 0.00 | 0.00 | 73 | 1014.7 |
| 20260505083603 | 53 | 3 | 3.5 | 10.4 | 0.00 | 0.00 | 0.00 | 76 | 1015.0 |
| 20260505082104 | 53 | 331 | 2.6 | 10.4 | 0.00 | 0.00 | 0.00 | 77 | 1014.9 |
| 20260505081103 | 52 | 353 | 3.5 | 10.4 | 0.00 | 0.00 | 0.00 | 80 | 1015.0 |
| 20260505080603 | 51 | 1 | 6.1 | 13.0 | 0.00 | 0.00 | 0.00 | 79 | 1015.1 |
| 20260505075603 | 51 | 2 | 4.3 | 7.8 | 0.00 | 0.00 | 0.00 | 82 | 1015.1 |
| 20260505074603 | 51 | 356 | 4.3 | 7.0 | 0.00 | 0.00 | 0.00 | 83 | 1015.1 |
| 20260505073603 | 50 | 358 | 5.2 | 8.7 | 0.00 | 0.00 | 0.00 | 85 | 1015.2 |
| 20260505073103 | 50 | 351 | 5.2 | 7.8 | 0.00 | 0.00 | 0.00 | 86 | 1015.2 |
| 20260505071603 | 49 | 3 | 4.3 | 8.7 | 0.00 | 0.00 | 0.00 | 88 | 1015.2 |
| 20260505071104 | 49 | 346 | 4.3 | 10.4 | 0.00 | 0.00 | 0.00 | 88 | 1015.2 |
| 20260505070104 | 48 | 3 | 7.0 | 13.9 | 0.00 | 0.00 | 0.00 | 90 | 1015.1 |
| 20260505065604 | 48 | 356 | 5.2 | 10.4 | 0.00 | 0.00 | 0.00 | 91 | 1015.2 |
| 20260505065104 | 48 | 357 | 5.2 | 8.7 | 0.00 | 0.00 | 0.00 | 91 | 1015.2 |
| 20260505064603 | 48 | 356 | 2.6 | 7.8 | 0.00 | 0.00 | 0.00 | 92 | 1015.1 |
| 20260505061603 | 47 | 346 | 2.6 | 4.3 | 0.00 | 0.00 | 0.00 | 95 | 1015.0 |
| 20260505060103 | 47 | 356 | 1.7 | 2.6 | 0.00 | 0.00 | 0.00 | 94 | 1015.0 |
| 20260505054605 | 48 | 346 | 2.6 | 5.2 | 0.00 | 0.00 | 0.00 | 93 | 1014.8 |
| 20260505054104 | 48 | 350 | 1.7 | 6.1 | 0.00 | 0.00 | 0.00 | 93 | 1014.7 |
| 20260505053104 | 48 | 9 | 0.9 | 2.6 | 0.00 | 0.00 | 0.00 | 94 | 1014.7 |
| 20260505052103 | 47 | 346 | 1.7 | 4.3 | 0.00 | 0.00 | 0.00 | 95 | 1014.6 |
| 20260505051605 | 47 | 14 | 0.0 | 1.7 | 0.00 | 0.00 | 0.00 | 95 | 1014.7 |
| 20260505051103 | 47 | 23 | 0.0 | 0.9 | 0.00 | 0.00 | 0.00 | 95 | 1014.6 |
| 20260505050603 | 47 | 25 | 0.0 | 0.9 | 0.00 | 0.00 | 0.00 | 95 | 1014.7 |
| 20260505050103 | 47 | 25 | 0.0 | 1.7 | 0.00 | 0.00 | 0.00 | 95 | 1014.7 |
| 20260505041103 | 47 | 43 | 0.0 | 0.9 | 0.00 | 0.00 | 0.00 | 95 | 1015.1 |
| 20260505035603 | 48 | 36 | 0.9 | 2.6 | 0.00 | 0.00 | 0.00 | 95 | 1015.1 |
| 20260505034103 | 48 | 334 | 0.9 | 2.6 | 0.00 | 0.00 | 0.00 | 94 | 1015.0 |
| 20260505033603 | 48 | 15 | 0.9 | 2.6 | 0.00 | 0.00 | 0.00 | 94 | 1015.0 |
| 20260505032604 | 48 | 9 | 1.7 | 4.3 | 0.00 | 0.00 | 0.00 | 94 | 1014.9 |
| 20260505031603 | 49 | 0 | 1.7 | 4.3 | 0.00 | 0.00 | 0.00 | 94 | 1014.9 |
| 20260505025104 | 50 | 347 | 1.7 | 2.6 | 0.00 | 0.00 | 0.00 | 93 | 1014.8 |
| 20260505024603 | 50 | 358 | 2.6 | 6.1 | 0.00 | 0.00 | 0.00 | 93 | 1014.8 |
| 20260505024103 | 50 | 335 | 2.6 | 6.1 | 0.00 | 0.00 | 0.00 | 92 | 1014.8 |
| 20260505023603 | 50 | 340 | 1.7 | 2.6 | 0.00 | 0.00 | 0.00 | 92 | 1014.7 |
| 20260505023103 | 51 | 355 | 2.6 | 2.6 | 0.00 | 0.00 | 0.00 | 91 | 1014.7 |
| 20260505022603 | 51 | 343 | 2.6 | 5.2 | 0.00 | 0.00 | 0.00 | 91 | 1014.8 |
| 20260505020604 | 51 | 358 | 0.9 | 2.6 | 0.00 | 0.00 | 0.00 | 91 | 1014.9 |
| 20260505015603 | 51 | 328 | 2.6 | 4.3 | 0.00 | 0.00 | 0.00 | 90 | 1015.1 |
| 20260505014104 | 52 | 317 | 0.9 | 2.6 | 0.00 | 0.00 | 0.00 | 90 | 1015.1 |
| 20260505013104 | 52 | 342 | 0.0 | 0.9 | 0.00 | 0.00 | 0.00 | 90 | 1015.1 |
| 20260505012104 | 52 | 22 | 0.0 | 0.9 | 0.00 | 0.00 | 0.00 | 90 | 1015.1 |
| 20260505004603 | 52 | 9 | 0.0 | 1.7 | 0.00 | 0.00 | 0.00 | 90 | 1015.4 |
| 20260505004104 | 52 | 359 | 0.9 | 1.7 | 0.00 | 0.00 | 0.00 | 89 | 1015.5 |
| 20260505003603 | 52 | 354 | 0.9 | 2.6 | 0.00 | 0.00 | 0.00 | 90 | 1015.5 |
| 20260505002104 | 52 | 357 | 0.9 | 2.6 | 0.00 | 0.00 | 0.00 | 89 | 1015.5 |
| 20260505001603 | 52 | 353 | 0.9 | 2.6 | 0.00 | 0.00 | 0.00 | 89 | 1015.5 |
| 20260505001103 | 52 | 2 | 0.9 | 1.7 | 0.00 | 0.00 | 0.00 | 89 | 1015.6 |
| 20260505000603 | 52 | 345 | 0.9 | 2.6 | 0.00 | 0.00 | 0.00 | 89 | 1015.6 |
| 20260505000103 | 52 | 349 | 1.7 | 2.6 | 0.00 | 0.00 | 0.00 | 89 | 1015.6 |
| 20260504235603 | 52 | 343 | 0.9 | 4.3 | 0.00 | 0.00 | 0.00 | 89 | 1015.6 |
| 20260504234603 | 53 | 350 | 0.0 | 4.3 | 0.00 | 0.00 | 0.00 | 89 | 1015.6 |
| 20260504233604 | 53 | 348 | 1.7 | 6.1 | 0.00 | 0.00 | 0.00 | 88 | 1015.6 |
| 20260504233103 | 53 | 353 | 1.7 | 5.2 | 0.00 | 0.00 | 0.00 | 88 | 1015.7 |
| 20260504232603 | 53 | 14 | 3.5 | 7.0 | 0.00 | 0.00 | 0.00 | 87 | 1015.6 |
| 20260504232102 | 53 | 358 | 2.6 | 5.2 | 0.00 | 0.00 | 0.00 | 88 | 1015.6 |
| 20260504231104 | 53 | 348 | 0.9 | 2.6 | 0.00 | 0.00 | 0.00 | 88 | 1015.6 |
| 20260504230604 | 53 | 352 | 1.7 | 6.1 | 0.00 | 0.00 | 0.00 | 88 | 1015.5 |
| 20260504224603 | 54 | 344 | 2.6 | 4.3 | 0.00 | 0.00 | 0.00 | 88 | 1015.7 |
| 20260504224104 | 54 | 325 | 0.9 | 2.6 | 0.00 | 0.00 | 0.00 | 88 | 1015.7 |
| 20260504222603 | 54 | 350 | 0.9 | 2.6 | 0.00 | 0.00 | 0.00 | 88 | 1015.8 |
| 20260504222103 | 54 | 347 | 0.9 | 1.7 | 0.00 | 0.00 | 0.00 | 88 | 1015.9 |